TimeCDT,TemperatureF,Dew PointF,Humidity,Sea Level PressureIn,VisibilityMPH,Wind Direction,Wind SpeedMPH,Gust SpeedMPH,PrecipitationIn,Events,Conditions,WindDirDegrees,DateUTC
12:35 AM,57.2,41.0,55,30.32,10.0,SSE,3.5,-,N/A,,Clear,160,2013-04-26 05:35:00
12:55 AM,57.2,39.2,51,30.31,10.0,South,4.6,-,N/A,,Clear,180,2013-04-26 05:55:00
1:15 AM,57.2,41.0,55,30.30,10.0,SE,3.5,-,N/A,,Clear,140,2013-04-26 06:15:00
1:35 AM,55.4,42.8,63,30.30,10.0,SE,3.5,-,N/A,,Clear,140,2013-04-26 06:35:00
2:15 AM,55.4,41.0,58,30.29,10.0,SE,4.6,-,N/A,,Clear,130,2013-04-26 07:15:00
2:35 AM,53.6,42.8,67,30.29,10.0,ESE,4.6,-,N/A,,Clear,110,2013-04-26 07:35:00
2:55 AM,51.8,42.8,71,30.30,10.0,ESE,3.5,-,N/A,,Clear,110,2013-04-26 07:55:00
3:15 AM,50.0,42.8,76,30.31,10.0,East,3.5,-,N/A,,Clear,100,2013-04-26 08:15:00
3:35 AM,51.8,42.8,71,30.30,10.0,ESE,5.8,-,N/A,,Clear,110,2013-04-26 08:35:00
3:55 AM,53.6,42.8,67,30.29,10.0,ESE,6.9,-,N/A,,Scattered Clouds,110,2013-04-26 08:55:00
4:15 AM,53.6,41.0,62,30.29,10.0,ESE,4.6,-,N/A,,Overcast,120,2013-04-26 09:15:00
4:35 AM,53.6,41.0,62,30.28,10.0,East,5.8,-,N/A,,Overcast,100,2013-04-26 09:35:00
4:55 AM,53.6,42.8,67,30.28,10.0,ESE,8.1,-,N/A,,Overcast,110,2013-04-26 09:55:00
5:15 AM,53.6,42.8,67,30.26,10.0,ESE,6.9,-,N/A,,Overcast,120,2013-04-26 10:15:00
5:35 AM,53.6,42.8,67,30.27,10.0,SE,6.9,-,N/A,,Overcast,130,2013-04-26 10:35:00
5:55 AM,53.6,44.6,72,30.27,10.0,ESE,5.8,-,N/A,,Overcast,120,2013-04-26 10:55:00
6:15 AM,53.6,44.6,72,30.27,10.0,East,5.8,-,N/A,,Overcast,100,2013-04-26 11:15:00
6:35 AM,53.6,44.6,72,30.33,10.0,NW,10.4,-,N/A,,Overcast,310,2013-04-26 11:35:00
6:55 AM,53.6,44.6,72,30.37,10.0,North,4.6,-,0.01,Thunderstorm,Overcast,10,2013-04-26 11:55:00
7:15 AM,51.8,46.4,82,30.35,10.0,East,10.4,-,0.01,,Overcast,80,2013-04-26 12:15:00
7:35 AM,51.8,46.4,82,30.33,10.0,East,9.2,-,0.01,,Overcast,100,2013-04-26 12:35:00
7:55 AM,51.8,46.4,82,30.35,10.0,SSE,5.8,-,0.01,,Overcast,150,2013-04-26 12:55:00
8:15 AM,53.6,46.4,77,30.36,10.0,Calm,Calm,-,N/A,,Mostly Cloudy,0,2013-04-26 13:15:00
8:35 AM,53.6,44.6,72,30.36,10.0,SE,5.8,-,N/A,,Overcast,140,2013-04-26 13:35:00
8:55 AM,53.6,46.4,77,30.36,10.0,Calm,Calm,-,N/A,,Overcast,0,2013-04-26 13:55:00
9:15 AM,53.6,48.2,82,30.35,10.0,NE,4.6,-,N/A,,Overcast,40,2013-04-26 14:15:00
9:35 AM,55.4,46.4,72,30.36,10.0,NE,3.5,-,N/A,,Overcast,50,2013-04-26 14:35:00
9:55 AM,57.2,48.2,72,30.35,10.0,East,6.9,-,N/A,,Mostly Cloudy,90,2013-04-26 14:55:00
10:15 AM,57.2,46.4,67,30.34,10.0,ENE,6.9,-,N/A,,Mostly Cloudy,60,2013-04-26 15:15:00
10:35 AM,57.2,48.2,72,30.34,10.0,NE,6.9,-,N/A,,Overcast,40,2013-04-26 15:35:00
10:55 AM,57.2,46.4,67,30.34,10.0,ENE,5.8,-,N/A,,Overcast,60,2013-04-26 15:55:00
11:15 AM,57.2,46.4,67,30.34,10.0,East,9.2,-,N/A,,Overcast,80,2013-04-26 16:15:00
11:35 AM,57.2,48.2,72,30.32,10.0,East,6.9,-,N/A,,Overcast,80,2013-04-26 16:35:00
11:55 AM,55.4,48.2,77,30.40,10.0,WNW,6.9,-,N/A,,Overcast,290,2013-04-26 16:55:00
12:15 PM,55.4,48.2,77,30.37,10.0,North,4.6,-,N/A,Thunderstorm,Overcast,10,2013-04-26 17:15:00
12:35 PM,53.6,48.2,82,30.36,10.0,North,4.6,-,0.01,Thunderstorm,Thunderstorm,10,2013-04-26 17:35:00
12:55 PM,53.6,48.2,82,30.40,7.0,East,3.5,-,0.02,Thunderstorm,Thunderstorm,100,2013-04-26 17:55:00
1:15 PM,53.6,48.2,82,30.39,10.0,NNW,3.5,-,N/A,,Overcast,330,2013-04-26 18:15:00
1:35 PM,51.8,48.2,88,30.37,10.0,NE,5.8,-,0.02,Thunderstorm,Thunderstorm,50,2013-04-26 18:35:00
1:55 PM,51.8,48.2,88,30.36,10.0,NNE,8.1,-,0.04,,Overcast,30,2013-04-26 18:55:00
2:15 PM,51.8,48.2,88,30.34,8.0,NE,5.8,-,0.02,,Overcast,50,2013-04-26 19:15:00
2:35 PM,53.6,51.8,94,30.30,10.0,ENE,11.5,-,0.02,,Overcast,70,2013-04-26 19:35:00
2:55 PM,55.4,51.8,88,30.29,10.0,East,11.5,-,0.02,,Mostly Cloudy,90,2013-04-26 19:55:00
3:15 PM,57.2,50.0,77,30.29,10.0,ENE,9.2,16.1,N/A,,Mostly Cloudy,70,2013-04-26 20:15:00
3:35 PM,55.4,48.2,77,30.29,10.0,East,13.8,-,N/A,,Overcast,90,2013-04-26 20:35:00
3:55 PM,55.4,48.2,77,30.29,10.0,ENE,6.9,-,N/A,,Overcast,70,2013-04-26 20:55:00
4:15 PM,55.4,48.2,77,30.29,10.0,ENE,6.9,-,N/A,,Overcast,70,2013-04-26 21:15:00
4:35 PM,55.4,48.2,77,30.28,10.0,East,9.2,-,N/A,,Mostly Cloudy,90,2013-04-26 21:35:00
4:55 PM,55.4,48.2,77,30.27,10.0,East,10.4,-,N/A,,Overcast,90,2013-04-26 21:55:00
5:15 PM,53.6,48.2,82,30.26,10.0,East,9.2,-,0.02,Thunderstorm,Thunderstorm,100,2013-04-26 22:15:00
5:35 PM,53.6,48.2,82,30.25,10.0,East,12.7,-,0.02,Thunderstorm,Overcast,100,2013-04-26 22:35:00
5:55 PM,53.6,48.2,82,30.26,8.0,East,10.4,-,0.03,Thunderstorm,Thunderstorm,100,2013-04-26 22:55:00
6:15 PM,53.6,48.2,82,30.24,10.0,East,10.4,16.1,N/A,,Overcast,90,2013-04-26 23:15:00
6:35 PM,53.6,48.2,82,30.24,10.0,East,9.2,-,N/A,,Overcast,80,2013-04-26 23:35:00
6:55 PM,53.6,46.4,77,30.24,10.0,East,6.9,-,N/A,,Overcast,90,2013-04-26 23:55:00
7:15 PM,53.6,46.4,77,30.24,10.0,ESE,8.1,-,N/A,,Overcast,110,2013-04-27 00:15:00
7:35 PM,53.6,46.4,77,30.24,10.0,East,5.8,-,N/A,,Overcast,80,2013-04-27 00:35:00
7:55 PM,51.8,48.2,88,30.24,10.0,East,6.9,-,N/A,,Overcast,90,2013-04-27 00:55:00
8:15 PM,53.6,48.2,82,30.25,10.0,North,3.5,-,N/A,,Overcast,10,2013-04-27 01:15:00
8:35 PM,51.8,48.2,88,30.25,10.0,NNE,3.5,-,N/A,Thunderstorm,Overcast,20,2013-04-27 01:35:00
8:55 PM,51.8,48.2,88,30.27,10.0,NW,4.6,-,N/A,,Overcast,310,2013-04-27 01:55:00
9:15 PM,51.8,48.2,88,30.27,6.0,NE,4.6,-,0.01,,Overcast,40,2013-04-27 02:15:00
9:35 PM,51.8,48.2,88,30.26,6.0,NE,3.5,-,0.02,,Overcast,50,2013-04-27 02:35:00
9:55 PM,51.8,48.2,88,30.27,10.0,ENE,5.8,-,0.02,,Overcast,70,2013-04-27 02:55:00
10:15 PM,51.8,48.2,88,30.26,10.0,ENE,5.8,-,N/A,,Overcast,60,2013-04-27 03:15:00
10:35 PM,51.8,48.2,88,30.24,10.0,East,5.8,-,N/A,,Overcast,80,2013-04-27 03:35:00
10:55 PM,51.8,48.2,88,30.24,10.0,NE,4.6,-,N/A,,Overcast,50,2013-04-27 03:55:00
11:15 PM,51.8,48.2,88,30.23,10.0,East,9.2,-,N/A,,Overcast,80,2013-04-27 04:15:00
11:35 PM,51.8,48.2,88,30.23,10.0,East,8.1,-,N/A,,Overcast,90,2013-04-27 04:35:00
11:55 PM,51.8,48.2,88,30.23,10.0,East,10.4,-,N/A,Thunderstorm,Overcast,80,2013-04-27 04:55:00